Home > Weather > Corfu > Past weeks

Flag for Greece Past Weather in Corfu, Greece — Yesterday and Last 2 Weeks

Now
73 °F

Sunny.


Feels Like: 72 °F
Forecast: 74 / 86 °F
Wind: 3 mph from West

Location: Kerkyra Airport

Current Time: Jul 27, 2016 at 8:51:50 AM

Latest Report: Jul 27, 2016 at 7:50 AM


Visibility: 10 mi

Pressure: 29.86 "Hg

Humidity: 89%

Dew Point: 70 °F

Location of CorfuLocation

Past Weather in Corfu — Graph

°F

Corfu Temperature Yesterday

Maximum temperature yesterday: 90 °F (at 2:50 PM)
Minimum temperature yesterday: 72 °F (at 6:50 AM)
Average temperature yesterday: 81 °F

High & Low Weather Summary for the Past Weeks

 TemperatureHumidityPressure
High93 °F (Jul 12, 3:50 PM)94% (Jul 15, 2:50 AM)29.98 "Hg (Jul 15, 2:50 AM)
Low66 °F (Jul 19, 6:20 AM)29% (Jul 19, 4:50 PM)29.71 "Hg (Jul 15, 1:20 PM)
Average80 °F65%29.87 "Hg
* Reported Jul 12 7:20 AM — Jul 27 7:20 AM, Corfu, Weather by CustomWeather, © 2016

Note: Actual official high and low records may vary slightly from our data, if they occured in-between our weather recording intervals... More about our weather records

Advertising

Corfu Weather History for the Previous 24 Hours

Scroll right to see more
 ConditionsComfort  
Time TempWeatherWind HumidityBarometerVisibility
7:20 AM
Wed, Jul 27
72 °FClear.3 mph83%29.86 "Hg10 mi
6:50 AM72 °FClear.3 mph83%29.86 "Hg10 mi
6:20 AM72 °FPassing clouds.2 mph88%29.86 "HgN/A
5:50 AM72 °FPassing clouds.2 mph88%29.86 "HgN/A
5:20 AM73 °FPassing clouds.3 mph83%29.86 "HgN/A
4:50 AM73 °FPassing clouds.3 mph83%29.86 "HgN/A
4:20 AM75 °FPassing clouds.No wind78%29.86 "HgN/A
3:50 AM75 °FPassing clouds.3 mph78%29.86 "HgN/A
2:50 AM75 °FPassing clouds.3 mph78%29.86 "HgN/A
2:20 AM75 °FPassing clouds.2 mph83%29.86 "HgN/A
1:50 AM75 °FPassing clouds.No wind83%29.86 "HgN/A
1:20 AM77 °FPassing clouds.3 mph79%29.86 "HgN/A
12:50 AM77 °FPassing clouds.5 mph79%29.86 "HgN/A
12:20 AM79 °FPassing clouds.3 mph79%29.83 "HgN/A
11:50 PM
Tue, Jul 26
79 °FPassing clouds.3 mph79%29.83 "HgN/A
11:20 PM79 °FPassing clouds.3 mph74%29.83 "HgN/A
10:50 PM79 °FPassing clouds.3 mph74%29.83 "HgN/A
10:20 PM82 °FPassing clouds.3 mph66%29.80 "HgN/A
9:50 PM82 °FPassing clouds.3 mph66%29.80 "HgN/A
9:20 PM82 °FPassing clouds.No wind70%29.80 "HgN/A
8:50 PM84 °FPassing clouds.3 mph62%29.83 "HgN/A
8:20 PM86 °FScattered clouds.6 mph70%29.83 "HgN/A
7:50 PM86 °FScattered clouds.7 mph70%29.83 "HgN/A
7:20 PM90 °FScattered clouds.10 mph63%29.80 "HgN/A
6:50 PM90 °FScattered clouds.8 mph63%29.80 "HgN/A
6:20 PM90 °FScattered clouds.7 mph59%29.80 "HgN/A
5:50 PM90 °FScattered clouds.3 mph59%29.80 "HgN/A
5:20 PM90 °FScattered clouds.3 mph67%29.80 "HgN/A
4:50 PM90 °FScattered clouds.7 mph67%29.80 "HgN/A
4:20 PM90 °FScattered clouds.9 mph67%29.83 "HgN/A
3:20 PM90 °FScattered clouds.7 mph67%29.83 "HgN/A
2:50 PM90 °FScattered clouds.7 mph67%29.83 "HgN/A
2:20 PM88 °FScattered clouds.6 mph70%29.86 "HgN/A
1:50 PM88 °FScattered clouds.5 mph70%29.86 "HgN/A
1:20 PM86 °FScattered clouds.5 mph62%29.83 "HgN/A
12:20 PM86 °FScattered clouds.3 mph66%29.83 "HgN/A
11:50 AM86 °FScattered clouds.6 mph66%29.83 "HgN/A
11:20 AM84 °FScattered clouds.5 mph70%29.83 "HgN/A
10:50 AM84 °FScattered clouds.5 mph70%29.83 "HgN/A
10:20 AM81 °FScattered clouds.3 mph79%29.83 "HgN/A
9:50 AM81 °FScattered clouds.3 mph79%29.83 "HgN/A
9:20 AM79 °FScattered clouds.No wind79%29.83 "HgN/A
8:50 AM77 °FScattered clouds.No wind83%29.83 "HgN/A
8:20 AM73 °FScattered clouds.No wind89%29.83 "HgN/A
Weather by CustomWeather, © 2016

See weather overviewHow to use our weather pages